Regional Weather Roundup
Issued by NWS

Home | Current Version | Previous Version | Text Only | Print | Product List | Glossary On
Versions: 1 2 3 4 5 6 7 8 9 10 11 12 13 14 15 16 17 18 19 20 21 22 23 24 25 26 27 28 29 30 31 32 33 34 35 36 37 38 39 40 41 42 43 44 45 46 47 48 49 50
000
ASUS43 KLMK 301110
RWRKY
KENTUCKY REGIONAL WEATHER ROUNDUP
NATIONAL WEATHER SERVICE LOUISVILLE KY
700 AM EDT SUN AUG 30 2015

NOTE "FAIR" INDICATES FEW OR NO CLOUDS BELOW 12,000 FEET
WITH NO SIGNIFICANT WEATHER AND/OR OBSTRUCTIONS TO VISIBILITY.

KYZ001>023-026-027-061>063-070>075-301200-
WESTERN AND SOUTH CENTRAL KENTUCKY

CITY           SKY/WX    TMP DP  RH WIND       PRES   REMARKS
PADUCAH        LGT RAIN  70  68  93 NW3       30.05R
HENDERSON      MOCLDY    72  68  88 S5        30.05R
OWENSBORO      LGT RAIN  71  69  93 S9        30.07S
HOPKINSVILLE   PTCLDY    69  66  91 S3        30.09R
BOWLING GREEN  MOCLDY    67  65  93 CALM      30.10S
GLASGOW        MOCLDY    66  66 100 CALM      30.11S
$$

KYZ024-025-028>034-038-045-046-053-301200-
NORTH CENTRAL KENTUCKY

CITY           SKY/WX    TMP DP  RH WIND       PRES   REMARKS
LOUISVILLE/SDF CLOUDY    72  66  81 S6        30.08R
LOUISVILLE/LOU PTCLDY    70  67  90 CALM      30.09R
FORT KNOX      MOCLDY    68  66  94 S5        30.08R
$$

KYZ035>037-039>044-047>052-055>060-089>105-301200-
NORTHEAST KENTUCKY

CITY           SKY/WX    TMP DP  RH WIND       PRES   REMARKS
LEXINGTON      PTCLDY    67  64  90 S8        30.12R
COVINGTON      MOCLDY    66  64  93 CALM      30.10R
FRANKFORT      PTCLDY    68  65  90 S7        30.10S
$$

KYZ054-064>069-076>088-106>120-301200-
SOUTHEAST KENTUCKY

CITY           SKY/WX    TMP DP  RH WIND       PRES   REMARKS
JACKSON        PTCLDY    66  62  87 CALM      30.16R
LONDON         MOCLDY    66  61  84 CALM      30.15R
SOMERSET       CLOUDY    64  64 100 CALM      30.15R
MIDDLESBORO    CLOUDY    63  63  99 CALM      30.17S
MONTICELLO     PTSUNNY   67  67 100 CALM      30.17R FOG
$$



USA.gov is the U.S. government's official web portal to all federal, state and local government web resources and services.